Hourly Data Report for July 29, 2021

BORDEN AWOS
ONTARIO
Current Station Operator: DND

44°16'20.000" N
79°54'42.000" W
222.50 m
611B002
71534
YBN

Download Data

Hourly Data (July 2021)
Hourly Data Report for July 29, 2021
TIME
LST
Temp Definition
°C
Dew Point Definition
°C
Rel Hum Definition
%
Precip. Amount Definition
mm

Wind Dir Definition
10's deg

Wind Spd Definition
km/h
Visibility Definition
km
Stn Press Definition
kPa
Hmdx Definition


Wind Chill Definition


Weather Definition


00:00 16.3 13.1 81   16 7 14.5 98.78     LegendNANA
01:00 14.6 13.1 91   27 4 14.5 98.78     LegendNANA
02:00 15.1 13.2 88   21 6 14.5 98.76     LegendNANA
03:00 16.6 13.1 80   17 7 14.5 98.67     LegendNANA
04:00 16.9 13.7 81   15 7 14.5 98.59     LegendNANA
05:00 16.9 14.5 86   14 9 14.5 98.45     LegendNANA
06:00 17.5 15.6 89   17 11 14.5 98.42     Rain
07:00 16.9 15.9 94   16 9 4.8 98.36     Moderate Rain
08:00 17.3 16.6 96   12 9 9.7 98.31     Rain
09:00 17.8 17.0 95   14 11 14.5 98.24     LegendNANA
10:00 18.4 17.3 93   12 6 14.5 98.21     LegendNANA
11:00 19.5 17.7 89   10 6 14.5 98.17     LegendNANA
12:00 20.8 18.3 86   34 4 14.5 98.14 27   LegendNANA
13:00 21.6 18.7 84   1 9 14.5 98.13 28   LegendNANA
14:00 22.6 19.2 81   35 13 14.5 98.13 30   LegendNANA
15:00 22.4 18.4 78   33 15 14.5 98.15 29   LegendNANA
16:00
17:00 21.9 17.4 76   32 13 14.5 98.21 27   LegendNANA
18:00 21.9 17.5 76   32 11 14.5 98.24 28   LegendNANA
19:00 20.1 17.6 86   36 9 14.5 98.29 26   LegendNANA
20:00 18.7 17.3 92   35 13 14.5 98.35     LegendNANA
21:00 17.5 17.0 97     0 12.9 98.38     LegendNANA
22:00 16.0 16.0 100   25 4 6.4 98.39     LegendNANA
23:00 17.3 16.1 93   1 7 14.5 98.49     LegendNANA

Notes on Data Quality.

Legend

  • E = Estimated
  • M = Missing
  • NA = Not Available*
  • [empty] = Indicates an unobserved value
Date modified: